LKPD Weather Reports


Display with metric or nautical units.
time (UTC)temp
F
wind
direction
speed
MPH
gust
MPH
rain 1hr
in
rain 24hr
in
rain mn
in
humidity
%
barometer
mb
20260507023209 52 270 7.0 0.0 0.00 0.00 0.00 100 1008.0
20260507021941 54 270 7.0 0.0 0.00 0.00 0.00 93
20260507020224 52 270 7.0 0.0 0.00 0.00 0.00 93 1008.0
20260507013209 54 200 3.0 0.0 0.00 0.00 0.00 93 1007.0
20260507012041 54 210 5.0 0.0 0.00 0.00 0.00 93
20260507010226 54 220 5.0 0.0 0.00 0.00 0.00 93 1007.0
20260507003209 55 0 5.0 0.0 0.00 0.00 0.00 93 1006.0
20260507001942 55 220 5.0 0.0 0.00 0.00 0.00 93
20260507000219 55 270 6.0 0.0 0.00 0.00 0.00 93 1007.0
20260506233210 57 20 5.0 0.0 0.00 0.00 0.00 87 1006.0
20260506231942 57 350 5.0 0.0 0.00 0.00 0.00 87
20260506230225 57 330 5.0 0.0 0.00 0.00 0.00 82 1006.0
20260506223209 57 280 15.0 0.0 0.00 0.00 0.00 87 1006.0
20260506222142 57 270 18.0 0.0 0.00 0.00 0.00 87
20260506220224 55 0 2.0 0.0 0.00 0.00 0.00 87 1005.0
20260506214304 55 280 6.0 0.0 0.00 0.00 0.00 87 1006.0
20260506213210 55 310 6.0 0.0 0.00 0.00 0.00 87 1005.0
20260506212012 55 310 3.0 0.0 0.00 0.00 0.00 87 1005.0
20260506211942 55 310 7.0 0.0 0.00 0.00 0.00 87
20260506211703 55 310 5.0 0.0 0.00 0.00 0.00 87 1005.0
20260506210219 55 0 1.0 0.0 0.00 0.00 0.00 87 1005.0
20260506203208 55 140 6.0 0.0 0.00 0.00 0.00 87 1005.0
20260506202026 55 140 7.0 0.0 0.00 0.00 0.00 87
20260506200224 55 120 5.0 0.0 0.00 0.00 0.00 87 1005.0
20260506193217 57 110 3.0 0.0 0.00 0.00 0.00 82 1005.0
20260506192133 57 70 5.0 0.0 0.00 0.00 0.00 82
20260506190239 57 60 5.0 0.0 0.00 0.00 0.00 82 1004.0
20260506183231 59 360 5.0 0.0 0.00 0.00 0.00 82 1004.0
20260506182403 59 30 7.0 0.0 0.00 0.00 0.00 77 1004.0
20260506182033 59 360 5.0 0.0 0.00 0.00 0.00 82
20260506180233 63 330 6.0 0.0 0.00 0.00 0.00 72 1005.0
20260506173902 63 330 8.0 0.0 0.00 0.00 0.00 72 1004.0
20260506173224 63 60 6.0 0.0 0.00 0.00 0.00 82 1004.0
20260506171941 63 70 7.0 0.0 0.00 0.00 0.00 77
20260506171808 63 0 5.0 0.0 0.00 0.00 0.00 82 1005.0
20260506170219 63 60 6.0 0.0 0.00 0.00 0.00 82 1004.0
20260506163217 63 60 8.0 0.0 0.00 0.00 0.00 77 1004.0
20260506162158 63 90 9.0 0.0 0.00 0.00 0.00 82
20260506160226 63 90 9.0 0.0 0.00 0.00 0.00 82 1004.0
20260506153802 64 70 5.0 0.0 0.00 0.00 0.00 77 1004.0
20260506153217 64 340 5.0 0.0 0.00 0.00 0.00 72 1005.0
20260506152025 64 350 5.0 0.0 0.00 0.00 0.00 72
20260506150225 63 20 3.0 0.0 0.00 0.00 0.00 88 1005.0
20260506145904 64 350 5.0 0.0 0.00 0.00 0.00 72 1004.0
20260506143224 68 350 3.0 0.0 0.00 0.00 0.00 60 1005.0
20260506141958 68 340 5.0 0.0 0.00 0.00 0.00 60
20260506141808 68 20 3.0 0.0 0.00 0.00 0.00 56 1005.0
20260506140225 68 310 6.0 0.0 0.00 0.00 0.00 56 1005.0
20260506133224 68 170 8.0 0.0 0.00 0.00 0.00 52 1005.0
20260506132307 70 0 6.0 0.0 0.00 0.00 0.00 49 1005.0
20260506131958 73 310 5.0 0.0 0.00 0.00 0.00 38
20260506131809 72 320 3.0 0.0 0.00 0.00 0.00 43 1005.0
20260506130219 72 260 7.0 0.0 0.00 0.00 0.00 40 1006.0
20260506123216 72 180 6.0 0.0 0.00 0.00 0.00 40 1006.0
20260506121957 75 210 5.0 0.0 0.00 0.00 0.00 36
20260506120225 72 0 5.0 0.0 0.00 0.00 0.00 43 1006.0
20260506113216 72 0 5.0 0.0 0.00 0.00 0.00 43 1006.0
20260506111943 72 190 5.0 0.0 0.00 0.00 0.00 40
20260506110218 68 260 7.0 0.0 0.00 0.00 0.00 49 1007.0
20260506103216 70 240 10.0 0.0 0.00 0.00 0.00 49 1007.0
20260506102144 70 240 12.0 0.0 0.00 0.00 0.00 46
20260506100221 68 220 13.0 0.0 0.00 0.00 0.00 49 1007.0
20260506093217 68 260 13.0 0.0 0.00 0.00 0.00 45 1007.0
20260506091943 68 260 14.0 0.0 0.00 0.00 0.00 45
20260506090220 66 230 14.0 0.0 0.00 0.00 0.00 52 1007.0
20260506083216 64 250 14.0 0.0 0.00 0.00 0.00 55 1007.0
20260506081941 64 250 14.0 0.0 0.00 0.00 0.00 55
20260506080227 66 250 13.0 0.0 0.00 0.00 0.00 55 1007.0
20260506073216 63 260 15.0 0.0 0.00 0.00 0.00 63 1007.0
20260506071943 63 260 14.0 0.0 0.00 0.00 0.00 63
20260506070226 63 250 13.0 0.0 0.00 0.00 0.00 63 1007.0
20260506061944 61 250 12.0 0.0 0.00 0.00 0.00 67
20260506060219 61 250 10.0 0.0 0.00 0.00 0.00 67 1007.0
20260506050225 59 250 8.0 0.0 0.00 0.00 0.00 77 1007.0
20260506043210 54 0 0.0 0.0 0.00 0.00 0.00 93 1006.0
20260506042142 55 240 2.0 0.0 0.00 0.00 0.00 87
20260506040220 54 260 2.0 0.0 0.00 0.00 0.00 87 1006.0
20260506033209 55 270 6.0 0.0 0.00 0.00 0.00 87 1006.0
20260506031943 57 260 7.0 0.0 0.00 0.00 0.00 82
20260506030219 55 250 6.0 0.0 0.00 0.00 0.00 87 1006.0